Weather History for Branson, MO

Change the Weather History Date:

Thursday, June 20, 2013

  Actual Average (KHRO) Record (KHRO)
Temperature  
Mean Temperature 78 °F 75 °F  
Max Temperature 89 °F 86 °F 105 °F (1936)
Min Temperature 66 °F 64 °F 45 °F (1912)
Degree Days  
Heating Degree Days 0 0  
Month to date heating degree days 3  
Since 1 June heating degree days 3  
Since 1 July heating degree days 4001  
Cooling Degree Days 12 10  
Month to date cooling degree days 156  
Year to date cooling degree days 295  
Since 1 June cooling degree days 156  
Growing Degree Days 28 (Base 50)    
Moisture  
Dew Point 64 °F    
Average Humidity 70    
Maximum Humidity 88    
Minimum Humidity 43    
Precipitation  
Precipitation 0.00 in 0.15 in 2.91 in (1955)
Month to date precipitation 2.90  
Year to date precipitation 20.90  
Snow  
Snow 0.00 in 0.00 in - ()
Month to date snowfall 0.0  
Since 1 June snowfall 0.0  
Since 1 July snowfall 11.5  
Snow Depth -    
Sea Level Pressure  
Sea Level Pressure 30.09 in    
Wind  
Wind Speed 6 mph (SSE)    
Max Wind Speed 13 mph    
Max Gust Speed -    
Visibility 10 miles    
Events      
T = Trace of Precipitation, MM = Missing Value Source: NWS Daily Summary

Daily Weather History Graph

Daily Weather History Graph

Search for Another Location

Airport:

Trip Planner

Search our weather history database for the weather conditions in past years. The results will help you decide how hot, cold, wet, or windy it might be!

Date:

Astronomy

Jun. 20, 2013 Rise Set
Actual Time 5:54 AM CDT 8:34 PM CDT
Civil Twilight 5:24 AM CDT 9:04 PM CDT
Nautical Twilight 4:46 AM CDT 9:42 PM CDT
Astronomical Twilight 4:03 AM CDT 10:25 PM CDT
Moon 5:40 PM CDT (6/20) 3:17 AM CDT (6/20)
Length of Visible Light 15h 40m
Length of Day
14h 39m
Waxing Gibbous, 89% of the Moon is Illuminated
Jun 20
Waxing Gibbous
Jun 23
Full
Jun 29
Last Quarter
Jul 8
New
Jul 15
First Quarter

Hourly Weather History & Observations

Time (CDT) Temp. Heat Index Dew Point Humidity Pressure Visibility Wind Dir Wind Speed Gust Speed Precip Events Conditions
12:15 AM 71.6 °F - 62.6 °F 73% 30.08 in 10.0 mi South 4.6 mph - N/A   Partly Cloudy
12:35 AM 71.6 °F - 62.6 °F 73% 30.08 in 10.0 mi South 3.5 mph - N/A   Scattered Clouds
12:55 AM 71.6 °F - 62.6 °F 73% 30.08 in 10.0 mi SSE 4.6 mph - N/A   Mostly Cloudy
1:15 AM 73.4 °F - 62.6 °F 69% 30.08 in 10.0 mi SSE 4.6 mph - N/A   Scattered Clouds
1:35 AM 71.6 °F - 62.6 °F 73% 30.08 in 10.0 mi SSE 3.5 mph - N/A   Clear
1:55 AM 71.6 °F - 62.6 °F 73% 30.08 in 10.0 mi SSE 3.5 mph - N/A   Partly Cloudy
2:15 AM 71.6 °F - 62.6 °F 73% 30.08 in 10.0 mi SSE 4.6 mph - N/A   Scattered Clouds
2:35 AM 69.8 °F - 62.6 °F 78% 30.07 in 10.0 mi SSE 4.6 mph - N/A   Scattered Clouds
2:55 AM 68.0 °F - 62.6 °F 83% 30.07 in 10.0 mi SSE 4.6 mph - N/A   Mostly Cloudy
3:15 AM 68.0 °F - 62.6 °F 83% 30.07 in 10.0 mi SSE 3.5 mph - N/A   Partly Cloudy
3:35 AM 68.0 °F - 62.6 °F 83% 30.07 in 10.0 mi SSE 3.5 mph - N/A   Clear
3:55 AM 68.0 °F - 62.6 °F 83% 30.07 in 10.0 mi SSE 3.5 mph - N/A   Clear
4:15 AM 68.0 °F - 62.6 °F 83% 30.08 in 10.0 mi SSE 3.5 mph - N/A   Clear
4:35 AM 68.0 °F - 62.6 °F 83% 30.08 in 10.0 mi SSE 3.5 mph - N/A   Clear
4:55 AM 68.0 °F - 62.6 °F 83% 30.08 in 10.0 mi SSE 4.6 mph - N/A   Clear
5:15 AM 66.2 °F - 62.6 °F 88% 30.08 in 10.0 mi SE 5.8 mph - N/A   Clear
5:35 AM 66.2 °F - 62.6 °F 88% 30.09 in 10.0 mi SE 6.9 mph - N/A   Clear
5:55 AM 66.2 °F - 62.6 °F 88% 30.10 in 10.0 mi SSE 5.8 mph - N/A   Clear
6:15 AM 66.2 °F - 62.6 °F 88% 30.10 in 10.0 mi SSE 5.8 mph - N/A   Clear
6:35 AM 68.0 °F - 62.6 °F 83% 30.10 in 10.0 mi SE 5.8 mph - N/A   Clear
6:51 AM 68.0 °F - 64.4 °F 88% 30.10 in 10.0 mi SSE 5.8 mph - N/A   Clear
7:45 AM 71.6 °F - 64.4 °F 78% 30.12 in 10.0 mi SE 8.1 mph - N/A   Clear
8:46 AM 75.2 °F - 66.2 °F 73% 30.13 in 10.0 mi SE 9.2 mph - N/A   Clear
9:46 AM 78.8 °F - 66.2 °F 65% 30.14 in 10.0 mi SSE 11.5 mph - N/A   Mostly Cloudy
10:47 AM 82.4 °F 84.6 °F 66.2 °F 58% 30.14 in 10.0 mi SSE 9.2 mph - N/A   Mostly Cloudy
11:45 AM 84.2 °F 86.6 °F 66.2 °F 55% 30.13 in 10.0 mi SSE 9.2 mph - N/A   Scattered Clouds
12:45 PM 84.2 °F 86.6 °F 66.2 °F 55% 30.12 in 10.0 mi SSE 8.1 mph - N/A   Scattered Clouds
1:50 PM 86.0 °F 87.3 °F 64.4 °F 48% 30.11 in 10.0 mi South 9.2 mph - N/A   Scattered Clouds
2:50 PM 89.6 °F 91.1 °F 64.4 °F 43% 30.09 in 10.0 mi SSE 9.2 mph - N/A   Scattered Clouds
3:48 PM 87.8 °F 89.4 °F 64.4 °F 46% 30.08 in 10.0 mi SSE 12.7 mph - N/A   Scattered Clouds
4:45 PM 89.6 °F 91.1 °F 64.4 °F 43% 30.07 in 10.0 mi SE 11.5 mph - N/A   Partly Cloudy
5:45 PM 87.8 °F 90.4 °F 66.2 °F 49% 30.06 in 10.0 mi SSE 11.5 mph - N/A   Partly Cloudy
6:45 PM 86.0 °F 88.2 °F 66.2 °F 51% 30.05 in 10.0 mi SSE 6.9 mph - N/A   Partly Cloudy
7:45 PM 84.2 °F 86.6 °F 66.2 °F 55% 30.06 in 10.0 mi SSE 5.8 mph - N/A   Clear
8:45 PM 78.8 °F - 66.2 °F 65% 30.06 in 10.0 mi SSE 6.9 mph - N/A   Scattered Clouds
9:15 PM 78.8 °F - 66.2 °F 65% 30.06 in 10.0 mi SSE 6.9 mph - N/A   Clear
9:35 PM 77.0 °F - 66.2 °F 69% 30.06 in 10.0 mi SE 9.2 mph - N/A   Clear
9:55 PM 77.0 °F - 66.2 °F 69% 30.07 in 10.0 mi SSE 8.1 mph - N/A   Clear
10:15 PM 77.0 °F - 66.2 °F 69% 30.08 in 10.0 mi SSE 6.9 mph - N/A   Clear
10:35 PM 77.0 °F - 66.2 °F 69% 30.09 in 10.0 mi SE 6.9 mph - N/A   Clear
10:55 PM 77.0 °F - 66.2 °F 69% 30.09 in 10.0 mi SSE 6.9 mph - N/A   Clear
11:15 PM 75.2 °F - 66.2 °F 73% 30.10 in 10.0 mi SSE 8.1 mph - N/A   Partly Cloudy
11:35 PM 75.2 °F - 66.2 °F 73% 30.10 in 10.0 mi SE 9.2 mph - N/A   Clear
11:55 PM 75.2 °F - 66.2 °F 73% 30.11 in 10.0 mi SE 9.2 mph - N/A   Clear